| time (UTC) | temp C | wind direction | speed KPH | gust KPH | rain 1hr cm | rain 24hr cm | rain mn cm | humidity % | barometer mb |
| 20260509171612 | 17 | 191 | 1.6 | 11.3 | 0.00 | 0.00 | 0.00 | 46 | 1012.3 |
| 20260509170046 | 17 | 198 | 1.6 | 8.0 | 0.00 | 0.00 | 0.00 | 47 | 1012.8 |
| 20260509164541 | 16 | 236 | 0.0 | 4.8 | 0.00 | 0.00 | 0.00 | 46 | 1013.0 |
| 20260509163038 | 15 | 195 | 1.6 | 6.4 | 0.00 | 0.00 | 0.00 | 48 | 1013.0 |
| 20260509161536 | 14 | 180 | 1.6 | 9.7 | 0.00 | 0.00 | 0.00 | 52 | 1013.0 |
| 20260509160031 | 14 | 218 | 1.6 | 8.0 | 0.00 | 0.00 | 0.00 | 56 | 1013.0 |
| 20260509154534 | 13 | 195 | 1.6 | 6.4 | 0.00 | 0.00 | 0.00 | 57 | 1013.1 |
| 20260509153031 | 13 | 186 | 3.2 | 6.4 | 0.00 | 0.00 | 0.00 | 56 | 1013.0 |
| 20260509151526 | 13 | 165 | 3.2 | 11.3 | 0.00 | 0.00 | 0.00 | 58 | 1013.0 |
| 20260509150022 | 12 | 156 | 1.6 | 6.4 | 0.00 | 0.00 | 0.00 | 59 | 1012.8 |
| 20260509144520 | 12 | 196 | 1.6 | 4.8 | 0.00 | 0.00 | 0.00 | 61 | 1012.8 |
| 20260509143023 | 12 | 190 | 1.6 | 4.8 | 0.00 | 0.00 | 0.00 | 62 | 1012.6 |
| 20260509141522 | 11 | 188 | 1.6 | 4.8 | 0.00 | 0.00 | 0.00 | 62 | 1012.7 |
| 20260509140013 | 11 | 195 | 1.6 | 4.8 | 0.00 | 0.00 | 0.00 | 62 | 1012.7 |
| 20260509134512 | 11 | 200 | 0.0 | 3.2 | 0.00 | 0.00 | 0.00 | 63 | 1012.9 |
| 20260509133007 | 10 | 162 | 0.0 | 1.6 | 0.00 | 0.00 | 0.00 | 66 | 1013.1 |
| 20260509131508 | 10 | 162 | 0.0 | 1.6 | 0.00 | 0.00 | 0.00 | 67 | 1013.1 |
| 20260509130006 | 10 | 162 | 1.6 | 3.2 | 0.00 | 0.00 | 0.00 | 65 | 1013.0 |
| 20260509124505 | 10 | 162 | 0.0 | 3.2 | 0.00 | 0.00 | 0.00 | 63 | 1012.9 |
| 20260509123003 | 10 | 162 | 0.0 | 3.2 | 0.00 | 0.00 | 0.00 | 60 | 1013.0 |
| 20260509121502 | 10 | 162 | 0.0 | 1.6 | 0.00 | 0.00 | 0.00 | 61 | 1013.1 |
| 20260509120108 | 10 | 158 | 0.0 | 4.8 | 0.00 | 0.00 | 0.00 | 60 | 1013.4 |
| 20260509114606 | 10 | 180 | 0.0 | 3.2 | 0.00 | 0.00 | 0.00 | 60 | 1013.6 |
| 20260509113059 | 10 | 278 | 0.0 | 0.0 | 0.00 | 0.00 | 0.00 | 60 | 1013.6 |
| 20260509111558 | 10 | 278 | 0.0 | 1.6 | 0.00 | 0.00 | 0.00 | 60 | 1013.3 |
| 20260509110057 | 10 | 278 | 0.0 | 3.2 | 0.00 | 0.00 | 0.00 | 61 | 1013.4 |
| 20260509104559 | 10 | 236 | 0.0 | 1.6 | 0.00 | 0.00 | 0.00 | 60 | 1013.5 |
| 20260509103055 | 10 | 198 | 0.0 | 6.4 | 0.00 | 0.00 | 0.00 | 59 | 1013.0 |
| 20260509101555 | 9 | 228 | 1.6 | 6.4 | 0.00 | 0.00 | 0.00 | 58 | 1012.7 |
| 20260509100058 | 9 | 246 | 0.0 | 4.8 | 0.00 | 0.00 | 0.00 | 61 | 1012.9 |
| 20260509094554 | 9 | 198 | 0.0 | 6.4 | 0.00 | 0.00 | 0.00 | 61 | 1012.8 |
| 20260509093052 | 9 | 255 | 0.0 | 8.0 | 0.00 | 0.00 | 0.00 | 61 | 1013.0 |
| 20260509091550 | 9 | 42 | 1.6 | 4.8 | 0.00 | 0.00 | 0.00 | 61 | 1012.8 |
| 20260509090049 | 8 | 157 | 0.0 | 3.2 | 0.00 | 0.00 | 0.00 | 65 | 1012.9 |
| 20260509084553 | 8 | 227 | 0.0 | 3.2 | 0.00 | 0.00 | 0.00 | 66 | 1013.0 |
| 20260509083047 | 8 | 188 | 0.0 | 6.4 | 0.00 | 0.00 | 0.00 | 66 | 1013.0 |
| 20260509081548 | 8 | 238 | 1.6 | 8.0 | 0.00 | 0.00 | 0.00 | 66 | 1013.1 |
| 20260509080043 | 8 | 234 | 0.0 | 8.0 | 0.00 | 0.00 | 0.00 | 66 | 1013.2 |
| 20260509074545 | 8 | 227 | 1.6 | 6.4 | 0.00 | 0.00 | 0.00 | 67 | 1013.7 |
| 20260509073041 | 8 | 184 | 0.0 | 3.2 | 0.00 | 0.00 | 0.00 | 66 | 1013.3 |
| 20260509071544 | 8 | 190 | 1.6 | 3.2 | 0.00 | 0.00 | 0.00 | 66 | 1013.3 |
| 20260509070035 | 8 | 194 | 1.6 | 3.2 | 0.00 | 0.00 | 0.00 | 67 | 1013.7 |
| 20260509064533 | 8 | 194 | 1.6 | 3.2 | 0.00 | 0.00 | 0.00 | 67 | 1014.0 |
| 20260509063034 | 8 | 195 | 0.0 | 1.6 | 0.00 | 0.00 | 0.00 | 67 | 1013.9 |
| 20260509061535 | 8 | 195 | 0.0 | 1.6 | 0.00 | 0.00 | 0.00 | 67 | 1014.6 |
| 20260509060027 | 8 | 195 | 0.0 | 1.6 | 0.00 | 0.00 | 0.00 | 67 | 1015.0 |
| 20260509054525 | 8 | 196 | 0.0 | 6.4 | 0.00 | 0.00 | 0.00 | 67 | 1015.1 |
| 20260509053028 | 8 | 230 | 0.0 | 8.0 | 0.00 | 0.00 | 0.00 | 67 | 1015.5 |
| 20260509051529 | 8 | 191 | 0.0 | 4.8 | 0.00 | 0.00 | 0.00 | 68 | 1015.7 |
| 20260509050022 | 9 | 189 | 0.0 | 1.6 | 0.00 | 0.00 | 0.00 | 67 | 1016.0 |
| 20260509044522 | 9 | 135 | 0.0 | 1.6 | 0.00 | 0.00 | 0.00 | 67 | 1016.0 |
| 20260509043016 | 9 | 135 | 0.0 | 3.2 | 0.00 | 0.00 | 0.00 | 66 | 1016.1 |
| 20260509041514 | 9 | 130 | 0.0 | 4.8 | 0.00 | 0.00 | 0.00 | 65 | 1016.4 |
| 20260509040015 | 10 | 130 | 0.0 | 17.7 | 0.00 | 0.00 | 0.00 | 64 | 1016.3 |
| 20260509034514 | 10 | 182 | 1.6 | 11.3 | 0.00 | 0.00 | 0.00 | 65 | 1016.3 |
| 20260509033011 | 10 | 239 | 1.6 | 11.3 | 0.00 | 0.00 | 0.00 | 66 | 1016.6 |
| 20260509031510 | 10 | 180 | 1.6 | 11.3 | 0.00 | 0.00 | 0.00 | 66 | 1016.7 |
| 20260509030010 | 10 | 154 | 0.0 | 3.2 | 0.00 | 0.00 | 0.00 | 65 | 1016.4 |
| 20260509024510 | 10 | 191 | 0.0 | 3.2 | 0.00 | 0.00 | 0.00 | 65 | 1016.3 |
| 20260509023015 | 10 | 206 | 0.0 | 3.2 | 0.00 | 0.00 | 0.00 | 65 | 1016.3 |
| 20260509021514 | 10 | 200 | 0.0 | 1.6 | 0.00 | 0.00 | 0.00 | 64 | 1016.3 |
| 20260509020008 | 10 | 251 | 1.6 | 6.4 | 0.00 | 0.00 | 0.00 | 63 | 1016.5 |
| 20260509014508 | 10 | 193 | 0.0 | 3.2 | 0.00 | 0.00 | 0.00 | 63 | 1016.4 |
| 20260509013021 | 11 | 192 | 1.6 | 4.8 | 0.00 | 0.00 | 0.00 | 62 | 1016.2 |
| 20260509011507 | 11 | 200 | 0.0 | 1.6 | 0.00 | 0.00 | 0.00 | 62 | 1016.1 |
| 20260509010006 | 11 | 200 | 0.0 | 1.6 | 0.00 | 0.00 | 0.00 | 61 | 1016.3 |
| 20260509004506 | 11 | 200 | 0.0 | 3.2 | 0.00 | 0.00 | 0.00 | 60 | 1016.2 |
| 20260509003005 | 11 | 201 | 0.0 | 1.6 | 0.00 | 0.00 | 0.00 | 59 | 1016.1 |
| 20260509001507 | 12 | 201 | 0.0 | 3.2 | 0.00 | 0.00 | 0.00 | 56 | 1016.1 |
| 20260509000004 | 12 | 202 | 0.0 | 3.2 | 0.00 | 0.00 | 0.00 | 58 | 1015.9 |
| 20260508234506 | 12 | 232 | 0.0 | 9.7 | 0.00 | 0.00 | 0.00 | 56 | 1015.8 |
| 20260508233105 | 13 | 150 | 0.0 | 4.8 | 0.00 | 0.00 | 0.00 | 54 | 1015.8 |
| 20260508231501 | 13 | 192 | 1.6 | 4.8 | 0.00 | 0.00 | 0.00 | 54 | 1015.8 |
| 20260508230103 | 13 | 188 | 1.6 | 9.7 | 0.00 | 0.00 | 0.00 | 51 | 1015.8 |
| 20260508224609 | 14 | 192 | 0.0 | 3.2 | 0.00 | 0.00 | 0.00 | 45 | 1016.0 |
| 20260508223059 | 15 | 198 | 0.0 | 3.2 | 0.00 | 0.00 | 0.00 | 43 | 1015.8 |
| 20260508221604 | 15 | 197 | 1.6 | 6.4 | 0.00 | 0.00 | 0.00 | 42 | 1016.0 |
| 20260508220059 | 16 | 196 | 0.0 | 8.0 | 0.00 | 0.00 | 0.00 | 43 | 1016.1 |
| 20260508214556 | 16 | 205 | 0.0 | 6.4 | 0.00 | 0.00 | 0.00 | 39 | 1015.9 |
| 20260508213114 | 16 | 223 | 1.6 | 12.9 | 0.00 | 0.00 | 0.00 | 38 | 1016.1 |
| 20260508211554 | 16 | 190 | 0.0 | 6.4 | 0.00 | 0.00 | 0.00 | 34 | 1016.0 |
| 20260508210054 | 16 | 183 | 1.6 | 3.2 | 0.00 | 0.00 | 0.00 | 36 | 1015.9 |
| 20260508204554 | 16 | 197 | 0.0 | 4.8 | 0.00 | 0.00 | 0.00 | 40 | 1016.2 |
| 20260508203109 | 16 | 183 | 1.6 | 3.2 | 0.00 | 0.00 | 0.00 | 34 | 1016.5 |
| 20260508201551 | 16 | 200 | 0.0 | 4.8 | 0.00 | 0.00 | 0.00 | 39 | 1016.7 |
| 20260508200055 | 16 | 216 | 1.6 | 6.4 | 0.00 | 0.00 | 0.00 | 34 | 1016.6 |
| 20260508194550 | 16 | 186 | 0.0 | 8.0 | 0.00 | 0.00 | 0.00 | 35 | 1016.9 |
| 20260508193123 | 16 | 207 | 3.2 | 6.4 | 0.00 | 0.00 | 0.00 | 31 | 1017.3 |
| 20260508191551 | 17 | 248 | 4.8 | 12.9 | 0.00 | 0.00 | 0.00 | 29 | 1017.6 |
| 20260508190048 | 17 | 219 | 3.2 | 9.7 | 0.00 | 0.00 | 0.00 | 32 | 1017.5 |
| 20260508184607 | 17 | 242 | 4.8 | 11.3 | 0.00 | 0.00 | 0.00 | 30 | 1017.8 |
| 20260508183046 | 17 | 252 | 4.8 | 11.3 | 0.00 | 0.00 | 0.00 | 27 | 1017.7 |
| 20260508181546 | 17 | 244 | 3.2 | 8.0 | 0.00 | 0.00 | 0.00 | 30 | 1018.0 |
| 20260508180045 | 16 | 242 | 3.2 | 8.0 | 0.00 | 0.00 | 0.00 | 31 | 1018.0 |
| 20260508174556 | 16 | 243 | 4.8 | 8.0 | 0.00 | 0.00 | 0.00 | 34 | 1018.1 |
| 20260508173035 | 15 | 248 | 3.2 | 8.0 | 0.00 | 0.00 | 0.00 | 41 | 1018.4 |